STARLINK-35670

Last updated on Tue Dec 16 2025 00:02:05 GMT+0000 (Coordinated Universal Time)

1 66480U 25262AA 25349.33335648 .00020623 00000+0 50013-3 0 9993 2 66480 43.0008 55.9395 0001263 295.4040 156.9094 15.40669041 6054
UTC large
Height (km)
Speed (km/s)
/
Latitude / Longitude
Inclination (degrees)
Orbital Period (minutes)
Azimuth
Elevation
Range (km)
Doppler Factor

Next 0 passes for location: London (51.5072 / 0.1276)

Sorry there are no passes over London.